Simultaneous Nadir Overpasses (SNOs) Predictions

Prediction of SNOs between LANDSAT-8 and METOP-B Satellite Orbit:

Table of predicted SNOs for the next 14.0 days since TLE Epoch: 1/23/2016
Index Date (LANDSAT-8) Time (LANDSAT-8) Lat,Lon (LANDSAT-8) SZA (LANDSAT-8 ) Date (METOP-B) Time (METOP-B) Lat,Lon (METOP-B) SZA (METOP-B ) Distance(km) Time Diff (sec)
1 01/24/2016 08:57:59 81.18, 86.21 102.21 01/24/2016 08:57:15 81.18, 86.12 102.19 1.47 44
2 01/24/2016 09:47:25 -81.20,-105.87 77.76 01/24/2016 09:47:54 -81.20,-105.83 77.75 0.77 29
3 01/27/2016 04:32:13 81.18, 152.55 101.49 01/27/2016 04:31:34 81.18, 152.61 101.49 1.33 39
4 01/27/2016 05:21:38 -81.22, -39.13 78.43 01/27/2016 05:22:12 -81.22, -38.95 78.40 3.07 34
5 01/30/2016 00:06:27 81.19,-140.82 100.77 01/30/2016 00:05:54 81.19,-140.93 100.75 1.93 33
6 01/30/2016 00:55:53 -81.21, 27.16 79.20 01/30/2016 00:56:33 -81.21, 27.13 79.19 0.48 40
7 02/01/2016 19:40:41 81.20, -74.27 100.00 02/01/2016 19:40:13 81.20, -74.13 100.00 2.38 28
8 02/01/2016 20:30:07 -81.22, 93.73 79.97 02/01/2016 20:30:53 -81.21, 93.56 79.97 3.18 46
9 02/04/2016 15:14:54 81.20, -7.79 99.18 02/04/2016 15:14:32 81.20, -7.74 99.17 0.90 22




NCC Satellite Simultaneous Nadir Overpasses (SNOs) Prediction Service
